Fargo, ND

8:47 AM CDT on September 15, 2019 (GMT -0500)
Hector International

Weather History for KFAR - August, 2019

Change the Weather History Date:

Sunday, August 18, 2019

  Actual Average Record
Temperature  
Mean Temperature 64 °F 69 °F  
Max Temperature 74 °F 81 °F 106 °F (1976)
Min Temperature 53 °F 57 °F 41 °F (2002)
Degree Days  
Heating Degree Days 1 1  
Month to date heating degree days 10 14  
Since 1 June heating degree days 74 103  
Since 1 July heating degree days 16 30  
Cooling Degree Days 0 5  
Month to date cooling degree days 78 112  
Year to date cooling degree days 456 452  
Since 1 June cooling degree days 446 421  
Growing Degree Days 13 (Base 50)    
Moisture  
Dew Point 50 °F    
Average Humidity 66    
Maximum Humidity 93    
Minimum Humidity 38    
Precipitation  
Precipitation 0.00 in 0.08 in 2.20 in (1884)
Month to date precipitation 2.24 1.33  
Year to date precipitation 18.58 14.80  
Snow  
Snow 0.00 in 0.00 in 0.00 in ()
Month to date snowfall 0.0 0.0  
Since 1 June snowfall 0.0 0.0  
Since 1 July snowfall 0.0 0.0  
Snow Depth 0.00 in    
Sea Level Pressure  
Sea Level Pressure 29.82 in    
Wind  
Wind Speed 10 mph (West)    
Max Wind Speed 17 mph    
Max Gust Speed 26 mph    
Visibility 10 miles    
Events      
T = Trace of Precipitation, MM = Missing Value Source: NWS Daily Summary

Daily Weather History Graph

Daily Weather History Graph

Search for Another Location

Airport or City:

Astronomy

Aug. 18, 2019 Rise Set
Actual Time 6:28 AM CDT 8:32 PM CDT
Civil Twilight 5:55 AM CDT 9:05 PM CDT
Nautical Twilight 5:14 AM CDT 9:46 PM CDT
Astronomical Twilight 4:28 AM CDT 10:31 PM CDT
Moon 10:17 PM CDT (8/18) 9:22 AM CDT (8/18)
Length of Visible Light 15h 10m
Length of Day
14h 04m
Waning Gibbous, 91% of the Moon is Illuminated
Aug 18
Waning Gibbous
Aug 23
Last Quarter
Aug 30
New
Sep 5
First Quarter
Sep 13
Full

Hourly Weather History & Observations

Time (CDT) Temp. Dew Point Humidity Pressure Visibility Wind Dir Wind Speed Gust Speed Precip Events Conditions
12:53 AM 61.0 °F 55.0 °F 81% 29.75 in - NW 9.2 mph - N/A   Overcast
1:53 AM 60.1 °F 55.0 °F 83% 29.75 in - NW 10.4 mph - N/A   Overcast
2:53 AM 59.0 °F 54.0 °F 83% 29.74 in 10.0 mi WNW 9.2 mph - N/A   Overcast
3:53 AM 59.0 °F 54.0 °F 83% 29.75 in 10.0 mi WNW 12.7 mph - N/A   Overcast
4:53 AM 57.9 °F 53.1 °F 84% 29.75 in - NW 12.7 mph - N/A   Overcast
5:53 AM 54.0 °F 51.1 °F 90% 29.77 in 10.0 mi WNW 6.9 mph - N/A   Clear
6:53 AM 53.1 °F 50.0 °F 89% 29.78 in 10.0 mi WNW 8.1 mph - N/A   Clear
7:53 AM 55.0 °F 50.0 °F 83% 29.80 in 10.0 mi WNW 9.2 mph - N/A   Clear
8:53 AM 57.0 °F 50.0 °F 77% 29.83 in 10.0 mi West 6.9 mph - N/A   Clear
9:53 AM 62.1 °F 51.1 °F 67% 29.84 in 10.0 mi West 8.1 mph - N/A   Clear
10:53 AM 66.0 °F 52.0 °F 60% 29.85 in 10.0 mi West 10.4 mph - N/A   Clear
11:53 AM 69.1 °F 48.0 °F 47% 29.86 in 10.0 mi NW 10.4 mph - N/A   Clear
12:53 PM 72.0 °F 46.0 °F 40% 29.86 in 10.0 mi West 11.5 mph - N/A   Partly Cloudy
1:53 PM 72.0 °F 45.0 °F 38% 29.86 in 10.0 mi West 13.8 mph - N/A   Clear
2:53 PM 72.0 °F 46.0 °F 40% 29.87 in 10.0 mi WNW 13.8 mph 21.9 mph N/A   Partly Cloudy
3:53 PM 73.0 °F 46.0 °F 38% 29.85 in 10.0 mi West 9.2 mph 17.3 mph N/A   Scattered Clouds
4:53 PM 73.0 °F 48.0 °F 41% 29.84 in 10.0 mi West 11.5 mph - N/A   Partly Cloudy
5:53 PM 73.0 °F 46.0 °F 38% 29.84 in 10.0 mi West 11.5 mph - N/A   Clear
6:53 PM 72.0 °F 48.0 °F 43% 29.83 in 10.0 mi West 6.9 mph - N/A   Clear
7:53 PM 68.0 °F 48.0 °F 49% 29.84 in 10.0 mi SW 6.9 mph - N/A   Clear
8:53 PM 61.0 °F 48.9 °F 64% 29.85 in 10.0 mi SW 8.1 mph - N/A   Clear
9:53 PM 57.9 °F 50.0 °F 75% 29.87 in - SSW 5.8 mph - N/A   Clear
10:53 PM 57.0 °F 50.0 °F 77% 29.88 in - South 8.1 mph - N/A   Clear
11:53 PM 57.0 °F 50.0 °F 77% 29.88 in 10.0 mi South 10.4 mph - N/A   Clear